contact:dominique.lefevre@mio.osupytheas.fr, maurice.libes@osupytheas.fr, didier.mallarino@osupytheas.fr
Project:EMSO http://www.emso-fr.org/EMSO-France
Depth: 2436.0 m
Title:EMSO Ligure Ouest : Data MII capteur AQUADOPP
Date,Latitude,Longitude,X_East,Y_North,Z_Up,Amplitude_X,Amplitude_Y,Amplitude_Z,Batterie,SoundSpeed,Heading,Pitch,Roll,Pressure,TIS,Speed,Direction
, degrees North, degrees East, m.s-1, m.s-1,m.s-1, 1, 1, 1, Volt, m.s-1, degree, degree, degree, dbar, degree_C, m.s-1, degree
2023-05-20T00:04:03,42.805,6.029,0.055,-0.003,-0.01,102.0,103.0,101.0,13.4,1505.2,332.9,-0.8,1.8,2471.409,13.28,0.055,93.1
2023-05-20T00:07:03,42.805,6.029,0.018,-0.015,-0.034,102.0,102.0,101.0,13.4,1505.2,345.1,-0.8,1.8,2471.414,13.28,0.023,129.8
2023-05-20T00:10:03,42.805,6.029,0.046,0.02,-0.007,104.0,102.0,100.0,13.4,1505.2,320.0,-0.8,1.8,2471.378,13.28,0.05,66.5
2023-05-20T00:13:03,42.805,6.029,0.071,-0.026,-0.018,104.0,101.0,100.0,13.4,1505.2,337.0,-0.8,1.8,2471.36,13.28,0.075,110.1
2023-05-20T00:16:03,42.805,6.029,0.051,-0.016,-0.008,103.0,102.0,101.0,13.4,1505.2,335.8,-0.7,1.8,2471.395,13.28,0.053,107.4
2023-05-20T00:19:03,42.805,6.029,0.037,0.006,-0.005,102.0,102.0,102.0,13.4,1505.2,328.3,-0.8,1.8,2471.376,13.29,0.037,80.8
2023-05-20T00:22:03,42.805,6.029,0.053,-0.04,0.012,102.0,103.0,100.0,13.3,1505.2,339.7,-0.7,1.8,2471.382,13.29,0.066,127.0
2023-05-20T00:25:03,42.805,6.029,0.016,-0.016,-0.028,103.0,101.0,102.0,13.3,1505.2,348.0,-0.7,1.8,2471.337,13.29,0.022,135.0
2023-05-20T00:28:03,42.805,6.029,0.058,-0.012,-0.052,101.0,102.0,101.0,13.3,1505.2,317.6,-0.8,1.8,2471.376,13.29,0.059,101.7
2023-05-20T00:31:03,42.805,6.029,0.049,-0.012,-0.002,102.0,102.0,101.0,13.4,1505.2,337.6,-0.8,1.8,2471.348,13.29,0.05,103.8
2023-05-20T00:34:03,42.805,6.029,0.025,-0.023,-0.056,103.0,102.0,101.0,13.4,1505.2,337.1,-0.7,1.8,2471.382,13.29,0.033,132.6
2023-05-20T00:37:03,42.805,6.029,0.052,-0.016,-0.007,100.0,103.0,101.0,13.3,1505.2,337.3,-0.8,1.8,2471.379,13.29,0.054,107.1
2023-05-20T00:40:03,42.805,6.029,0.022,0.005,-0.001,103.0,102.0,101.0,13.4,1505.2,328.7,-0.7,1.8,2471.318,13.29,0.022,77.2
2023-05-20T00:43:03,42.805,6.029,0.027,-0.011,-0.028,102.0,102.0,102.0,13.4,1505.2,327.3,-0.8,1.8,2471.347,13.29,0.029,112.2
2023-05-20T00:46:03,42.805,6.029,0.047,-0.015,-0.01,102.0,103.0,102.0,13.3,1505.2,341.2,-0.8,1.8,2471.312,13.29,0.049,107.7
2023-05-20T00:49:03,42.805,6.029,0.02,-0.042,-0.04,103.0,101.0,102.0,13.4,1505.2,347.0,-0.8,1.8,2471.315,13.29,0.046,154.5
2023-05-20T00:52:03,42.805,6.029,0.026,0.01,-0.004,102.0,104.0,101.0,13.4,1505.2,331.8,-0.7,1.8,2471.351,13.29,0.027,69.0
2023-05-20T00:55:03,42.805,6.029,0.067,-0.001,-0.006,102.0,102.0,101.0,13.4,1505.2,319.4,-0.8,1.8,2471.327,13.29,0.067,90.9
2023-05-20T00:58:03,42.805,6.029,0.043,-0.009,0.015,104.0,102.0,101.0,13.3,1505.2,337.5,-0.8,1.8,2471.311,13.29,0.043,101.8
2023-05-20T01:04:03,42.805,6.029,0.022,0.006,-0.018,103.0,103.0,102.0,13.4,1505.2,333.8,-0.7,1.8,2471.369,13.28,0.022,74.7
2023-05-20T01:07:03,42.805,6.029,0.059,-0.015,-0.048,102.0,101.0,101.0,13.4,1505.2,327.0,-0.8,1.8,2471.397,13.28,0.06,104.3
2023-05-20T01:10:03,42.805,6.029,0.036,-0.005,-0.019,102.0,101.0,101.0,13.3,1505.2,338.4,-0.8,1.8,2471.353,13.28,0.036,97.9
2023-05-20T01:13:03,42.805,6.029,0.029,-0.022,-0.02,102.0,102.0,101.0,13.4,1505.2,337.5,-0.8,1.8,2471.329,13.28,0.036,127.2
2023-05-20T01:16:03,42.805,6.029,0.04,-0.002,-0.019,101.0,103.0,101.0,13.3,1505.2,345.4,-0.7,1.8,2471.34,13.28,0.04,92.9
2023-05-20T01:19:03,42.805,6.029,0.027,-0.003,0.017,101.0,102.0,101.0,13.4,1505.2,322.4,-0.7,1.8,2471.323,13.29,0.027,96.3
2023-05-20T01:22:03,42.805,6.029,0.054,-0.014,0.013,101.0,102.0,101.0,13.3,1505.2,334.9,-0.8,1.8,2471.312,13.29,0.055,104.5
2023-05-20T01:25:03,42.805,6.029,0.03,-0.012,-0.052,102.0,101.0,100.0,13.4,1505.2,327.8,-0.7,1.8,2471.342,13.29,0.032,111.8
2023-05-20T01:28:03,42.805,6.029,0.041,-0.037,-0.039,100.0,102.0,101.0,13.3,1505.2,336.0,-0.7,1.8,2471.305,13.29,0.055,132.1
2023-05-20T01:31:03,42.805,6.029,0.038,-0.027,-0.002,101.0,102.0,101.0,13.3,1505.2,343.7,-0.8,1.8,2471.326,13.29,0.046,125.4
2023-05-20T01:34:03,42.805,6.029,0.035,-0.043,-0.051,101.0,102.0,101.0,13.4,1505.2,341.5,-0.8,1.8,2471.306,13.29,0.055,140.9
2023-05-20T01:37:03,42.805,6.029,0.035,-0.018,-0.028,101.0,101.0,102.0,13.3,1505.2,317.5,-0.8,1.8,2471.295,13.29,0.039,117.2
2023-05-20T01:40:03,42.805,6.029,0.058,0.006,0.018,101.0,103.0,101.0,13.3,1505.2,320.0,-0.7,1.8,2471.298,13.29,0.058,84.1
2023-05-20T01:43:03,42.805,6.029,0.044,-0.014,-0.008,103.0,101.0,101.0,13.4,1505.2,338.4,-0.8,1.8,2471.313,13.29,0.046,107.6
2023-05-20T01:46:03,42.805,6.029,0.025,0.007,0.015,103.0,102.0,100.0,13.4,1505.2,325.4,-0.8,1.8,2471.264,13.29,0.025,74.4
2023-05-20T01:49:03,42.805,6.029,0.042,0.009,-0.02,102.0,102.0,101.0,13.4,1505.2,326.5,-0.7,1.8,2471.315,13.29,0.042,77.9
2023-05-20T01:52:03,42.805,6.029,0.024,-0.02,-0.021,102.0,102.0,102.0,13.4,1505.2,324.6,-0.8,1.8,2471.299,13.29,0.031,129.8
2023-05-20T01:55:03,42.805,6.029,0.061,-0.008,0.004,103.0,101.0,102.0,13.4,1505.2,327.6,-0.8,1.8,2471.35,13.29,0.061,97.5
2023-05-20T01:58:03,42.805,6.029,0.053,-0.019,-0.033,103.0,100.0,102.0,13.3,1505.2,323.8,-0.8,1.8,2471.29,13.29,0.056,109.7
2023-05-20T02:04:03,42.805,6.029,0.056,-0.016,-0.013,102.0,102.0,102.0,13.4,1505.2,341.1,-0.8,1.9,2471.348,13.28,0.058,105.9
2023-05-20T02:07:03,42.805,6.029,0.068,-0.029,-0.056,103.0,101.0,102.0,13.3,1505.2,343.3,-0.7,1.8,2471.322,13.28,0.073,113.1
2023-05-20T02:10:03,42.805,6.029,0.031,-0.012,-0.002,102.0,103.0,101.0,13.3,1505.2,345.9,-0.8,1.8,2471.342,13.28,0.033,111.2
2023-05-20T02:13:03,42.805,6.029,0.031,-0.029,-0.034,103.0,103.0,101.0,13.3,1505.2,345.9,-0.8,1.8,2471.348,13.28,0.042,133.1
2023-05-20T02:16:03,42.805,6.029,0.023,-0.021,0.0,101.0,103.0,101.0,13.4,1505.2,344.2,-0.8,1.8,2471.311,13.29,0.031,132.4
2023-05-20T02:19:03,42.805,6.029,0.054,-0.009,-0.009,101.0,102.0,101.0,13.4,1505.2,327.2,-0.7,1.8,2471.306,13.29,0.054,99.5
2023-05-20T02:22:03,42.805,6.029,0.043,0.008,0.005,103.0,102.0,101.0,13.3,1505.2,325.4,-0.8,1.8,2471.324,13.29,0.043,79.5
2023-05-20T02:25:03,42.805,6.029,0.04,-0.013,0.005,102.0,103.0,100.0,13.3,1505.2,335.9,-0.7,1.8,2471.34,13.29,0.042,108.0
2023-05-20T02:28:03,42.805,6.029,0.035,-0.021,-0.065,102.0,102.0,101.0,13.4,1505.2,327.8,-0.8,1.8,2471.307,13.29,0.04,121.0
2023-05-20T02:31:03,42.805,6.029,0.053,-0.028,0.008,102.0,102.0,102.0,13.3,1505.2,331.5,-0.8,1.8,2471.266,13.29,0.059,117.9
2023-05-20T02:34:03,42.805,6.029,0.037,-0.024,-0.024,102.0,103.0,101.0,13.3,1505.2,333.4,-0.8,1.8,2471.315,13.29,0.044,123.0
2023-05-20T02:37:03,42.805,6.029,0.031,0.0,-0.023,101.0,102.0,101.0,13.3,1505.2,329.5,-0.8,1.8,2471.302,13.29,0.03,90.0
2023-05-20T02:40:03,42.805,6.029,0.048,-0.031,-0.057,104.0,101.0,101.0,13.4,1505.2,330.7,-0.8,1.8,2471.291,13.29,0.057,122.9
2023-05-20T02:43:03,42.805,6.029,0.043,-0.025,-0.013,103.0,102.0,102.0,13.3,1505.2,333.8,-0.7,1.8,2471.287,13.29,0.049,120.2
2023-05-20T02:46:03,42.805,6.029,0.042,-0.017,-0.032,102.0,102.0,102.0,13.3,1505.2,336.8,-0.8,1.8,2471.26,13.29,0.045,112.0
2023-05-20T02:49:03,42.805,6.029,0.052,-0.028,-0.018,102.0,102.0,100.0,13.3,1505.2,336.2,-0.7,1.8,2471.316,13.29,0.059,118.3
2023-05-20T02:52:03,42.805,6.029,0.053,-0.028,-0.037,101.0,101.0,101.0,13.4,1505.2,331.3,-0.8,1.8,2471.309,13.29,0.059,117.9
2023-05-20T02:55:03,42.805,6.029,0.035,0.0,-0.031,102.0,103.0,101.0,13.4,1505.2,333.8,-0.7,1.8,2471.265,13.29,0.035,90.0
2023-05-20T02:58:03,42.805,6.029,0.029,-0.015,-0.017,102.0,101.0,101.0,13.4,1505.2,340.1,-0.8,1.8,2471.303,13.29,0.032,117.4
2023-05-20T03:04:03,42.805,6.029,0.038,-0.01,-0.014,102.0,103.0,100.0,13.3,1505.2,332.1,-0.8,1.8,2471.362,13.28,0.039,104.7
2023-05-20T03:07:03,42.805,6.029,0.038,-0.005,-0.015,102.0,102.0,102.0,13.4,1505.2,327.1,-0.7,1.8,2471.311,13.28,0.038,97.5
2023-05-20T03:10:03,42.805,6.029,0.036,-0.019,0.0,102.0,103.0,101.0,13.4,1505.2,339.5,-0.7,1.8,2471.329,13.28,0.04,117.8
2023-05-20T03:13:03,42.805,6.029,0.028,-0.02,-0.047,103.0,102.0,101.0,13.4,1505.2,344.3,-0.8,1.8,2471.315,13.28,0.034,125.5
2023-05-20T03:16:03,42.805,6.029,0.053,0.005,-0.011,103.0,103.0,100.0,13.3,1505.2,332.1,-0.7,1.8,2471.331,13.29,0.053,84.6
2023-05-20T03:19:03,42.805,6.029,0.023,0.009,0.004,102.0,103.0,101.0,13.4,1505.2,321.0,-0.8,1.8,2471.293,13.29,0.024,68.6
2023-05-20T03:22:03,42.805,6.029,0.014,0.01,0.019,102.0,102.0,101.0,13.3,1505.2,338.2,-0.8,1.8,2471.275,13.29,0.017,54.5
2023-05-20T03:25:03,42.805,6.029,0.066,-0.034,-0.037,102.0,102.0,100.0,13.4,1505.2,328.3,-0.8,1.8,2471.278,13.29,0.074,117.3
2023-05-20T03:28:03,42.805,6.029,0.038,-0.014,-0.017,102.0,102.0,101.0,13.3,1505.2,340.6,-0.8,1.8,2471.33,13.29,0.04,110.2
2023-05-20T03:31:03,42.805,6.029,0.047,-0.003,-0.001,100.0,102.0,102.0,13.4,1505.2,326.5,-0.8,1.8,2471.325,13.29,0.047,93.6
2023-05-20T03:34:03,42.805,6.029,0.039,-0.018,-0.024,101.0,102.0,101.0,13.3,1505.2,325.7,-0.8,1.8,2471.293,13.29,0.042,114.8
2023-05-20T03:37:03,42.805,6.029,0.039,-0.023,-0.015,102.0,101.0,102.0,13.3,1505.2,342.3,-0.8,1.8,2471.28,13.29,0.045,120.5
2023-05-20T03:40:03,42.805,6.029,0.047,0.0,-0.008,102.0,103.0,101.0,13.4,1505.2,321.3,-0.8,1.8,2471.309,13.29,0.047,90.0
2023-05-20T03:43:03,42.805,6.029,0.028,0.011,-0.004,103.0,102.0,102.0,13.4,1505.2,337.3,-0.8,1.9,2471.307,13.29,0.03,68.6
2023-05-20T03:46:03,42.805,6.029,0.042,-0.025,-0.021,102.0,102.0,102.0,13.4,1505.2,333.4,-0.8,1.8,2471.293,13.29,0.048,120.8
2023-05-20T03:49:03,42.805,6.029,0.031,0.013,0.002,102.0,103.0,100.0,13.4,1505.2,331.3,-0.7,1.8,2471.302,13.29,0.033,67.3
2023-05-20T03:52:03,42.805,6.029,0.037,-0.016,-0.012,102.0,101.0,101.0,13.4,1505.2,326.6,-0.8,1.8,2471.324,13.29,0.04,113.4
2023-05-20T03:55:03,42.805,6.029,0.032,-0.013,-0.012,102.0,102.0,101.0,13.4,1505.2,326.3,-0.8,1.8,2471.282,13.29,0.034,112.1
2023-05-20T03:58:03,42.805,6.029,0.026,0.005,0.0,102.0,102.0,101.0,13.4,1505.2,327.1,-0.7,1.8,2471.292,13.29,0.026,79.1
2023-05-20T04:04:03,42.805,6.029,0.05,-0.004,-0.042,104.0,103.0,100.0,13.4,1505.2,334.7,-0.8,1.8,2471.327,13.28,0.05,94.6
2023-05-20T04:07:03,42.805,6.029,0.055,0.001,0.0,101.0,103.0,101.0,13.3,1505.2,323.5,-0.7,1.8,2471.374,13.28,0.055,89.0
2023-05-20T04:10:03,42.805,6.029,0.022,-0.023,-0.022,102.0,104.0,100.0,13.3,1505.2,326.5,-0.8,1.8,2471.381,13.28,0.031,136.3
2023-05-20T04:13:03,42.805,6.029,0.024,-0.014,-0.023,101.0,101.0,101.0,13.4,1505.2,321.7,-0.8,1.8,2471.314,13.28,0.027,120.3
2023-05-20T04:16:03,42.805,6.029,0.037,-0.006,-0.03,102.0,102.0,101.0,13.4,1505.2,338.2,-0.8,1.8,2471.35,13.29,0.037,99.2
2023-05-20T04:19:03,42.805,6.029,0.038,-0.02,-0.021,103.0,101.0,101.0,13.4,1505.2,328.3,-0.8,1.8,2471.39,13.29,0.042,117.8
2023-05-20T04:22:03,42.805,6.029,0.038,0.006,-0.02,104.0,101.0,101.0,13.4,1505.2,333.4,-0.8,1.8,2471.315,13.29,0.038,81.0
2023-05-20T04:25:03,42.805,6.029,0.052,-0.025,0.014,104.0,101.0,101.0,13.4,1505.2,334.2,-0.7,1.8,2471.348,13.29,0.057,115.7
2023-05-20T04:28:03,42.805,6.029,0.044,-0.016,-0.042,103.0,103.0,100.0,13.4,1505.2,337.2,-0.8,1.8,2471.306,13.29,0.046,110.0
2023-05-20T04:31:03,42.805,6.029,0.044,-0.006,0.012,100.0,103.0,102.0,13.4,1505.2,346.5,-0.8,1.8,2471.346,13.29,0.044,97.8
2023-05-20T04:34:03,42.805,6.029,0.023,-0.006,-0.048,103.0,103.0,101.0,13.4,1505.2,322.9,-0.8,1.8,2471.373,13.29,0.023,104.6
2023-05-20T04:37:03,42.805,6.029,0.028,-0.017,-0.047,104.0,101.0,101.0,13.4,1505.2,338.5,-0.8,1.8,2471.342,13.29,0.032,121.3
2023-05-20T04:40:03,42.805,6.029,0.026,0.01,-0.004,103.0,102.0,100.0,13.4,1505.2,324.5,-0.7,1.9,2471.341,13.29,0.027,69.0
2023-05-20T04:43:03,42.805,6.029,0.036,-0.006,-0.017,103.0,102.0,101.0,13.4,1505.2,327.2,-0.8,1.8,2471.35,13.29,0.036,99.5
2023-05-20T04:46:03,42.805,6.029,0.02,-0.005,-0.024,102.0,103.0,102.0,13.4,1505.2,334.4,-0.8,1.8,2471.331,13.29,0.02,104.0
2023-05-20T04:49:03,42.805,6.029,0.052,-0.024,-0.017,102.0,103.0,101.0,13.4,1505.2,329.9,-0.8,1.8,2471.356,13.29,0.057,114.8
2023-05-20T04:52:03,42.805,6.029,0.036,-0.025,-0.033,103.0,101.0,101.0,13.3,1505.2,331.8,-0.8,1.8,2471.38,13.29,0.043,124.8
2023-05-20T04:55:03,42.805,6.029,0.033,-0.015,-0.027,103.0,101.0,100.0,13.4,1505.2,327.8,-0.8,1.8,2471.344,13.29,0.036,114.4
2023-05-20T04:58:03,42.805,6.029,0.067,-0.025,-0.038,102.0,102.0,100.0,13.4,1505.2,322.4,-0.8,1.8,2471.343,13.29,0.071,110.5
2023-05-20T05:04:03,42.805,6.029,0.05,0.001,-0.037,103.0,102.0,102.0,13.4,1505.2,316.3,-0.8,1.8,2471.391,13.28,0.05,88.9
2023-05-20T05:07:03,42.805,6.029,0.034,0.012,0.003,102.0,103.0,101.0,13.4,1505.2,320.8,-0.8,1.8,2471.403,13.28,0.036,70.6
2023-05-20T05:10:03,42.805,6.029,0.042,-0.016,-0.017,102.0,102.0,101.0,13.4,1505.2,333.8,-0.8,1.8,2471.401,13.28,0.044,110.9
2023-05-20T05:13:03,42.805,6.029,0.04,-0.046,-0.026,103.0,102.0,101.0,13.4,1505.2,340.4,-0.8,1.8,2471.388,13.29,0.06,139.0
2023-05-20T05:16:03,42.805,6.029,0.019,0.008,-0.028,102.0,102.0,101.0,13.4,1505.2,323.5,-0.8,1.8,2471.385,13.29,0.02,67.2
2023-05-20T05:19:03,42.805,6.029,0.064,0.004,0.004,101.0,103.0,101.0,13.4,1505.2,324.3,-0.7,1.8,2471.398,13.29,0.064,86.4
2023-05-20T05:22:03,42.805,6.029,0.039,0.0,-0.03,103.0,103.0,100.0,13.3,1505.2,337.5,-0.8,1.8,2471.397,13.29,0.039,90.0
2023-05-20T05:25:03,42.805,6.029,0.03,-0.02,-0.043,101.0,102.0,102.0,13.4,1505.2,333.0,-0.7,1.8,2471.369,13.29,0.036,123.7
2023-05-20T05:28:03,42.805,6.029,0.052,0.003,0.003,103.0,101.0,102.0,13.3,1505.2,337.5,-0.8,1.8,2471.362,13.29,0.052,86.7
2023-05-20T05:31:03,42.805,6.029,0.013,0.0,-0.037,102.0,102.0,101.0,13.4,1505.2,327.7,-0.7,1.8,2471.419,13.29,0.013,90.0
2023-05-20T05:34:03,42.805,6.029,0.02,-0.026,-0.024,102.0,104.0,101.0,13.4,1505.2,345.1,-0.8,1.8,2471.455,13.29,0.032,142.4
2023-05-20T05:37:03,42.805,6.029,0.049,-0.04,-0.045,103.0,102.0,100.0,13.4,1505.2,329.0,-0.8,1.8,2471.43,13.29,0.063,129.2
2023-05-20T05:40:03,42.805,6.029,0.019,0.015,0.008,103.0,102.0,101.0,13.3,1505.2,333.4,-0.8,1.8,2471.386,13.29,0.024,51.7
2023-05-20T05:43:03,42.805,6.029,0.045,-0.018,-0.025,102.0,101.0,101.0,13.4,1505.2,324.3,-0.8,1.8,2471.381,13.29,0.048,111.8
2023-05-20T05:46:03,42.805,6.029,0.046,-0.027,-0.007,102.0,102.0,101.0,13.4,1505.2,341.9,-0.7,1.8,2471.399,13.29,0.053,120.4
2023-05-20T05:49:03,42.805,6.029,0.02,0.011,-0.023,102.0,102.0,101.0,13.4,1505.2,321.3,-0.7,1.8,2471.386,13.29,0.022,61.2
2023-05-20T05:52:03,42.805,6.029,0.017,0.002,-0.04,102.0,102.0,101.0,13.4,1505.2,333.4,-0.8,1.8,2471.409,13.29,0.017,83.3
2023-05-20T05:55:03,42.805,6.029,0.046,-0.029,-0.007,101.0,102.0,101.0,13.4,1505.2,338.4,-0.8,1.8,2471.428,13.29,0.054,122.2
2023-05-20T05:58:03,42.805,6.029,0.042,-0.018,-0.005,102.0,102.0,101.0,13.4,1505.2,318.2,-0.8,1.8,2471.398,13.29,0.045,113.2
2023-05-20T06:04:03,42.805,6.029,0.031,-0.003,-0.006,102.0,103.0,101.0,13.4,1505.2,336.5,-0.8,1.8,2471.441,13.28,0.031,95.5
2023-05-20T06:07:03,42.805,6.029,0.057,0.005,-0.026,102.0,102.0,101.0,13.3,1505.2,318.7,-0.7,1.8,2471.426,13.28,0.057,85.0
2023-05-20T06:10:03,42.805,6.029,0.026,-0.02,-0.02,102.0,102.0,101.0,13.3,1505.2,335.5,-0.8,1.8,2471.438,13.28,0.032,127.6
2023-05-20T06:13:03,42.805,6.029,0.031,-0.016,-0.007,102.0,102.0,101.0,13.4,1505.2,335.5,-0.8,1.8,2471.424,13.28,0.034,117.3
2023-05-20T06:16:03,42.805,6.029,0.039,-0.039,-0.02,102.0,102.0,101.0,13.4,1505.2,340.4,-0.8,1.8,2471.443,13.29,0.055,135.0
2023-05-20T06:19:03,42.805,6.029,0.031,-0.024,-0.027,102.0,101.0,101.0,13.4,1505.2,341.9,-0.8,1.8,2471.42,13.29,0.039,127.7
2023-05-20T06:22:03,42.805,6.029,0.042,-0.005,0.017,101.0,101.0,102.0,13.4,1505.2,341.2,-0.8,1.8,2471.416,13.29,0.042,96.8
2023-05-20T06:25:03,42.805,6.029,0.054,-0.015,-0.064,102.0,102.0,101.0,13.4,1505.2,317.8,-0.7,1.8,2471.425,13.29,0.056,105.5
2023-05-20T06:28:03,42.805,6.029,0.044,-0.015,0.001,103.0,104.0,101.0,13.4,1505.2,330.3,-0.7,1.8,2471.412,13.29,0.046,108.8
2023-05-20T06:31:03,42.805,6.029,0.046,-0.033,-0.045,102.0,102.0,102.0,13.4,1505.2,342.3,-0.7,1.8,2471.403,13.29,0.056,125.7
2023-05-20T06:34:03,42.805,6.029,0.034,0.01,0.017,102.0,102.0,101.0,13.4,1505.2,326.6,-0.8,1.8,2471.406,13.29,0.035,73.6
2023-05-20T06:37:03,42.805,6.029,0.042,-0.002,-0.005,102.0,102.0,101.0,13.3,1505.2,327.6,-0.8,1.8,2471.391,13.29,0.042,92.7
2023-05-20T06:40:03,42.805,6.029,0.072,-0.022,0.0,102.0,101.0,101.0,13.4,1505.2,336.1,-0.7,1.8,2471.431,13.29,0.075,107.0
2023-05-20T06:43:03,42.805,6.029,0.059,-0.006,-0.017,103.0,102.0,101.0,13.4,1505.2,329.8,-0.7,1.8,2471.43,13.29,0.059,95.8
2023-05-20T06:46:03,42.805,6.029,0.056,-0.027,-0.025,101.0,103.0,102.0,13.4,1505.2,330.8,-0.7,1.8,2471.432,13.29,0.062,115.7
2023-05-20T06:49:03,42.805,6.029,0.057,0.0,0.017,102.0,103.0,100.0,13.4,1505.2,341.9,-0.7,1.8,2471.427,13.29,0.057,90.0
2023-05-20T06:52:03,42.805,6.029,0.037,-0.011,0.008,102.0,102.0,101.0,13.4,1505.2,343.8,-0.8,1.8,2471.391,13.29,0.038,106.6
2023-05-20T06:55:03,42.805,6.029,0.002,-0.001,-0.052,101.0,104.0,100.0,13.4,1505.2,329.3,-0.8,1.8,2471.44,13.29,0.002,116.6
2023-05-20T06:58:03,42.805,6.029,0.055,-0.004,-0.008,101.0,101.0,101.0,13.4,1505.2,318.2,-0.7,1.8,2471.391,13.29,0.055,94.2
2023-05-20T07:04:03,42.805,6.029,0.041,-0.017,-0.013,102.0,102.0,100.0,13.4,1505.2,338.4,-0.8,1.8,2471.461,13.28,0.044,112.5
2023-05-20T07:07:03,42.805,6.029,0.016,0.0,-0.019,103.0,102.0,100.0,13.4,1505.2,340.2,-0.8,1.8,2471.491,13.28,0.016,90.0
2023-05-20T07:10:03,42.805,6.029,0.059,0.007,0.033,101.0,104.0,102.0,13.4,1505.2,318.7,-0.7,1.8,2471.469,13.28,0.059,83.2
2023-05-20T07:13:03,42.805,6.029,0.034,-0.009,-0.035,103.0,101.0,100.0,13.3,1505.2,326.3,-0.8,1.8,2471.438,13.28,0.035,104.8
2023-05-20T07:16:03,42.805,6.029,0.033,-0.004,-0.012,103.0,102.0,101.0,13.4,1505.2,333.4,-0.7,1.8,2471.44,13.28,0.033,96.9
2023-05-20T07:19:03,42.805,6.029,0.046,0.001,0.004,102.0,102.0,101.0,13.3,1505.2,316.9,-0.8,1.8,2471.442,13.29,0.046,88.8
2023-05-20T07:22:03,42.805,6.029,0.028,-0.014,-0.055,103.0,102.0,100.0,13.3,1505.2,327.3,-0.8,1.8,2471.44,13.29,0.031,116.6
2023-05-20T07:25:03,42.805,6.029,0.029,-0.004,0.005,103.0,101.0,101.0,13.4,1505.2,336.1,-0.7,1.8,2471.404,13.29,0.029,97.8
2023-05-20T07:28:03,42.805,6.029,0.046,0.0,-0.026,101.0,102.0,101.0,13.3,1505.2,324.3,-0.8,1.8,2471.432,13.29,0.046,90.0
2023-05-20T07:31:03,42.805,6.029,0.039,-0.005,-0.027,102.0,102.0,101.0,13.3,1505.2,330.2,-0.8,1.8,2471.412,13.29,0.039,97.3
2023-05-20T07:34:03,42.805,6.029,0.061,-0.002,0.004,101.0,102.0,101.0,13.4,1505.2,332.9,-0.7,1.8,2471.442,13.29,0.061,91.9
2023-05-20T07:37:03,42.805,6.029,0.039,0.012,-0.005,101.0,104.0,101.0,13.4,1505.2,339.6,-0.8,1.8,2471.382,13.29,0.04,72.9
2023-05-20T07:40:03,42.805,6.029,0.043,-0.015,-0.01,101.0,102.0,101.0,13.4,1505.2,333.4,-0.8,1.8,2471.422,13.29,0.045,109.2
2023-05-20T07:43:03,42.805,6.029,0.03,0.0,0.0,101.0,102.0,101.0,13.4,1505.2,342.7,-0.8,1.9,2471.409,13.29,0.03,90.0
2023-05-20T07:46:03,42.805,6.029,0.049,-0.015,-0.017,101.0,101.0,101.0,13.4,1505.2,324.3,-0.8,1.8,2471.418,13.29,0.051,107.0
2023-05-20T07:49:03,42.805,6.029,0.05,0.004,-0.011,102.0,100.0,102.0,13.4,1505.2,318.3,-0.7,1.8,2471.401,13.29,0.05,85.4
2023-05-20T07:52:03,42.805,6.029,0.026,-0.015,-0.043,103.0,101.0,100.0,13.3,1505.2,328.6,-0.8,1.8,2471.388,13.29,0.03,120.0
2023-05-20T07:55:03,42.805,6.029,0.062,0.003,-0.004,102.0,102.0,100.0,13.4,1505.2,326.3,-0.7,1.8,2471.403,13.29,0.062,87.2
2023-05-20T07:58:03,42.805,6.029,0.003,-0.014,-0.011,102.0,103.0,101.0,13.3,1505.2,332.9,-0.7,1.8,2471.415,13.29,0.014,167.9
2023-05-20T08:04:03,42.805,6.029,0.037,-0.01,-0.004,102.0,103.0,101.0,13.3,1505.2,320.8,-0.7,1.8,2471.466,13.28,0.038,105.1
2023-05-20T08:07:03,42.805,6.029,0.046,0.016,0.01,102.0,104.0,101.0,13.4,1505.2,330.1,-0.8,1.8,2471.405,13.28,0.048,70.8
2023-05-20T08:10:03,42.805,6.029,0.039,-0.037,-0.015,104.0,99.0,102.0,13.3,1505.2,339.4,-0.8,1.8,2471.403,13.28,0.053,133.5
2023-05-20T08:13:03,42.805,6.029,0.03,0.008,-0.022,102.0,101.0,100.0,13.3,1505.2,332.3,-0.8,1.8,2471.438,13.28,0.031,75.1
2023-05-20T08:16:03,42.805,6.029,0.033,0.004,-0.04,101.0,102.0,101.0,13.3,1505.2,339.5,-0.8,1.8,2471.405,13.28,0.033,83.1
2023-05-20T08:19:03,42.805,6.029,0.045,-0.008,-0.027,103.0,102.0,101.0,13.4,1505.2,321.7,-0.7,1.8,2471.4,13.29,0.045,100.1
2023-05-20T08:22:03,42.805,6.029,0.059,-0.014,-0.003,102.0,101.0,101.0,13.3,1505.2,337.1,-0.8,1.8,2471.388,13.29,0.06,103.3
2023-05-20T08:25:03,42.805,6.029,0.061,-0.023,-0.017,102.0,102.0,101.0,13.4,1505.2,336.6,-0.7,1.8,2471.367,13.29,0.065,110.7
2023-05-20T08:28:03,42.805,6.029,0.038,-0.014,-0.015,102.0,101.0,100.0,13.3,1505.2,336.1,-0.8,1.8,2471.351,13.29,0.04,110.2
2023-05-20T08:31:03,42.805,6.029,0.074,-0.019,-0.013,103.0,101.0,101.0,13.4,1505.2,329.0,-0.8,1.8,2471.397,13.29,0.076,104.4
2023-05-20T08:34:03,42.805,6.029,0.021,0.02,0.001,102.0,102.0,101.0,13.4,1505.2,328.4,-0.8,1.8,2471.377,13.29,0.028,46.4
2023-05-20T08:37:03,42.805,6.029,0.055,-0.002,-0.022,102.0,102.0,101.0,13.3,1505.2,332.6,-0.7,1.8,2471.369,13.29,0.055,92.1
2023-05-20T08:40:03,42.805,6.029,0.058,-0.028,-0.022,102.0,101.0,102.0,13.4,1505.2,337.1,-0.7,1.8,2471.364,13.29,0.064,115.8
2023-05-20T08:43:03,42.805,6.029,0.046,-0.036,-0.033,102.0,102.0,101.0,13.4,1505.2,335.0,-0.7,1.8,2471.403,13.29,0.058,128.0
2023-05-20T08:46:03,42.805,6.029,0.012,-0.017,-0.054,102.0,102.0,101.0,13.4,1505.2,329.3,-0.7,1.8,2471.363,13.29,0.02,144.8
2023-05-20T08:49:03,42.805,6.029,0.033,-0.01,0.003,102.0,103.0,101.0,13.3,1505.2,331.3,-0.8,1.8,2471.33,13.29,0.034,106.9
2023-05-20T08:52:03,42.805,6.029,0.031,-0.015,-0.015,103.0,102.0,101.0,13.4,1505.2,334.4,-0.8,1.8,2471.33,13.29,0.034,115.8
2023-05-20T08:55:03,42.805,6.029,0.054,-0.022,-0.025,102.0,102.0,101.0,13.4,1505.2,328.0,-0.7,1.8,2471.368,13.29,0.058,112.2
2023-05-20T08:58:03,42.805,6.029,0.047,-0.014,-0.015,102.0,103.0,101.0,13.3,1505.2,339.8,-0.8,1.8,2471.336,13.29,0.049,106.6
2023-05-20T09:04:03,42.805,6.029,0.047,-0.021,0.014,101.0,102.0,101.0,13.3,1505.2,345.9,-0.8,1.8,2471.445,13.28,0.051,114.1
2023-05-20T09:07:03,42.805,6.029,0.033,-0.015,-0.02,102.0,102.0,101.0,13.4,1505.2,342.7,-0.8,1.8,2471.359,13.28,0.036,114.4
2023-05-20T09:10:03,42.805,6.029,0.025,-0.003,-0.017,102.0,102.0,101.0,13.4,1505.2,336.1,-0.8,1.8,2471.388,13.28,0.025,96.8
2023-05-20T09:13:03,42.805,6.029,0.03,0.0,0.012,101.0,102.0,102.0,13.4,1505.2,338.0,-0.7,1.8,2471.383,13.28,0.03,90.0
2023-05-20T09:16:03,42.805,6.029,0.04,-0.008,-0.021,102.0,102.0,101.0,13.4,1505.2,337.1,-0.8,1.8,2471.334,13.29,0.04,101.3
2023-05-20T09:19:03,42.805,6.029,0.028,0.004,-0.002,103.0,102.0,102.0,13.4,1505.2,338.8,-0.8,1.8,2471.364,13.29,0.028,81.9
2023-05-20T09:22:03,42.805,6.029,0.037,-0.015,-0.041,103.0,102.0,101.0,13.4,1505.2,323.8,-0.8,1.8,2471.357,13.29,0.039,112.1
2023-05-20T09:25:03,42.805,6.029,0.038,-0.009,-0.002,103.0,103.0,101.0,13.4,1505.2,336.6,-0.8,1.8,2471.373,13.29,0.039,103.3
2023-05-20T09:28:03,42.805,6.029,0.032,0.0,0.0,102.0,102.0,101.0,13.4,1505.2,328.5,-0.8,1.8,2471.349,13.29,0.032,90.0
2023-05-20T09:31:03,42.805,6.029,0.04,0.002,0.01,103.0,103.0,101.0,13.4,1505.2,329.6,-0.8,1.8,2471.336,13.29,0.04,87.1
2023-05-20T09:34:03,42.805,6.029,0.033,-0.003,0.019,102.0,103.0,101.0,13.3,1505.2,334.3,-0.8,1.8,2471.322,13.29,0.033,95.2
2023-05-20T09:37:03,42.805,6.029,0.034,-0.026,-0.021,102.0,103.0,101.0,13.3,1505.2,342.7,-0.7,1.8,2471.319,13.29,0.042,127.4
2023-05-20T09:40:03,42.805,6.029,0.052,-0.01,-0.005,102.0,102.0,101.0,13.3,1505.2,330.1,-0.8,1.8,2471.333,13.29,0.052,100.9
2023-05-20T09:43:03,42.805,6.029,0.03,-0.01,-0.013,102.0,102.0,101.0,13.3,1505.2,329.1,-0.7,1.8,2471.331,13.29,0.031,108.4
2023-05-20T09:46:03,42.805,6.029,0.042,-0.029,-0.013,102.0,102.0,101.0,13.4,1505.2,348.2,-0.8,1.8,2471.324,13.29,0.051,124.6
2023-05-20T09:49:03,42.805,6.029,0.06,-0.015,-0.018,102.0,103.0,101.0,13.4,1505.2,320.7,-0.7,1.8,2471.324,13.29,0.061,104.0
2023-05-20T09:52:03,42.805,6.029,0.036,0.002,0.017,101.0,102.0,101.0,13.4,1505.2,325.2,-0.8,1.8,2471.326,13.29,0.036,86.8
2023-05-20T09:55:03,42.805,6.029,0.04,0.006,0.033,102.0,102.0,101.0,13.4,1505.2,326.3,-0.8,1.8,2471.305,13.29,0.04,81.5
2023-05-20T09:58:03,42.805,6.029,0.021,-0.004,-0.01,102.0,103.0,101.0,13.4,1505.2,344.2,-0.8,1.8,2471.286,13.29,0.021,100.8